Kinloss, United Kingdom

1:51 PM BST on October 22, 2017 (GMT +0100)
Kinloss Air Base

Weather History for EGQK - November, 2012

Change the Weather History Date:

Friday, November 16, 2012

  Actual Average Record
Temperature  
Mean Temperature 46 °F -  
Max Temperature 50 °F 45 °F 64 °F (1997)
Min Temperature 41 °F 35 °F 26 °F (1998)
Degree Days  
Heating Degree Days 20    
Moisture  
Dew Point 39 °F    
Average Humidity 76    
Maximum Humidity 93    
Minimum Humidity 56    
Precipitation  
Precipitation 0.02 in 0.07 in - ()
Sea Level Pressure  
Sea Level Pressure 29.72 in    
Wind  
Wind Speed 7 mph ()    
Max Wind Speed 16 mph    
Max Gust Speed -    
Visibility 6.7 miles    
Events Rain    
Averages and records for this station are not official NWS values.
T = Trace of Precipitation, MM = Missing Value Source: Averaged Metar Reports

Daily Weather History Graph

Daily Weather History Graph

Search for Another Location

Airport or City:

Trip Planner

Search our weather history database for the weather conditions in past years. The results will help you decide how hot, cold, wet, or windy it might be!

Date:

Astronomy

Nov. 16, 2012 Rise Set
Actual Time 8:01 AM GMT 3:55 PM GMT
Civil Twilight 7:16 AM GMT 4:40 PM GMT
Nautical Twilight 6:28 AM GMT 5:28 PM GMT
Astronomical Twilight 5:42 AM GMT 6:14 PM GMT
Moon 10:57 AM GMT (11/16) 6:26 PM GMT (11/16)
Length of Visible Light 9h 23m
Length of Day
7h 53m
Waxing Crescent, 10% of the Moon is Illuminated
Nov 16
Waxing Crescent
Nov 20
First Quarter
Nov 28
Full
Dec 6
Last Quarter
Dec 13
New

Hourly Weather History & Observations

Time (GMT) Temp. Windchill Dew Point Humidity Pressure Visibility Wind Dir Wind Speed Gust Speed Precip Events Conditions
12:50 AM 48.2 °F - 35.6 °F 62% 29.80 in - SW 16.1 mph - N/A   Scattered Clouds
1:50 AM 48.2 °F - 37.4 °F 66% 29.80 in 6.2 mi SW 13.8 mph - N/A   Partly Cloudy
2:50 AM 48 °F - 37 °F 56% 29.81 in 47 mi SSW 6.9 mph - -   Partly Cloudy
2:50 AM 48.2 °F - 37.4 °F 66% 29.80 in 6.2 mi SSW 6.9 mph - N/A   Mostly Cloudy
3:50 AM 48.2 °F - 37.4 °F 66% 29.77 in 6.2 mi South 8.1 mph - N/A   Scattered Clouds
4:50 AM 48.2 °F - 39.2 °F 71% 29.77 in 6.2 mi SSW 9.2 mph - N/A   Overcast
5:50 AM 47 °F - 39 °F 65% 29.78 in 44 mi WSW 6.9 mph - - Rain Light Rain Showers
5:50 AM 48.2 °F - 39.2 °F 71% 29.77 in 6.2 mi WSW 6.9 mph - N/A Rain Light Rain Showers
6:50 AM 44.6 °F 43.1 °F 41.0 °F 87% 29.77 in 6.2 mi WNW 3.5 mph - N/A   Mostly Cloudy
7:50 AM 44.6 °F - 41.0 °F 87% 29.77 in 6.2 mi SW 1.2 mph - N/A   Mostly Cloudy
8:50 AM 42 °F - 38 °F 83% 29.78 in 25 mi WSW 1.2 mph - -   Scattered Clouds
8:50 AM 41.0 °F - 39.2 °F 93% 29.77 in 6.2 mi WSW 1.2 mph - N/A   Mostly Cloudy
9:50 AM 46.4 °F 42.9 °F 41.0 °F 81% 29.77 in 6.2 mi WSW 6.9 mph - N/A   Mostly Cloudy
10:50 AM 48.2 °F - 42.8 °F 82% 29.74 in - WSW 8.1 mph - N/A   Clear
11:50 AM 49 °F - 42 °F 71% 29.75 in 47 mi West 5.8 mph - -   Mostly Cloudy
11:50 AM 48.2 °F - 42.8 °F 82% 29.74 in 6.2 mi West 5.8 mph - N/A   Scattered Clouds
12:50 PM 50.0 °F - 42.8 °F 76% 29.71 in 6.2 mi West 10.4 mph - N/A   Mostly Cloudy
1:50 PM 48.2 °F - 42.8 °F 82% 29.71 in 6.2 mi West 8.1 mph - N/A   Mostly Cloudy
2:50 PM 48 °F - 43 °F 77% 29.70 in 17 mi SW 5.8 mph - - Rain Light Rain Showers
2:50 PM 48.2 °F - 42.8 °F 82% 29.68 in 6.2 mi SW 5.8 mph - N/A Rain Rain
3:50 PM 48.2 °F - 42.8 °F 82% 29.68 in 6.2 mi SSW 9.2 mph - N/A Rain Light Rain
4:50 PM 46.4 °F 41.9 °F 41.0 °F 81% 29.68 in 6.2 mi SSW 9.2 mph - N/A Rain Light Rain
5:50 PM 46 °F - 40 °F 72% 29.69 in 40 mi SSW 6.9 mph - - Rain Light Rain
5:50 PM 46.4 °F 42.9 °F 39.2 °F 76% 29.68 in 6.2 mi SSW 6.9 mph - N/A Rain Light Rain
6:50 PM 44.6 °F 40.2 °F 39.2 °F 81% 29.65 in - South 8.1 mph - N/A   Overcast
7:50 PM 44.6 °F 40.2 °F 37.4 °F 76% 29.65 in 6.2 mi SW 8.1 mph - N/A   Overcast
8:50 PM 43 °F - 37 °F 74% 29.65 in 47 mi SSW 6.9 mph - -   Scattered Clouds
8:50 PM 42.8 °F 38.6 °F 37.4 °F 81% 29.65 in 6.2 mi SSW 6.9 mph - N/A   Overcast
9:50 PM 41.0 °F 38.0 °F 35.6 °F 81% 29.62 in 6.2 mi SSW 4.6 mph - N/A   Mostly Cloudy
10:50 PM 42.8 °F 39.3 °F 35.6 °F 76% 29.62 in - SSW 5.8 mph - N/A   Mostly Cloudy
11:50 PM 41 °F - 36 °F 77% 29.63 in - SSW 5.8 mph - -   Scattered Clouds
11:50 PM 41.0 °F 37.1 °F 35.6 °F 81% 29.62 in - SSW 5.8 mph - N/A   Scattered Clouds